www.pogodaiklimat.ru

Погода и климат >> Архив погоды >> Россия >> Краснодарский край >> Сочи


АРХИВ ПОГОДЫ в Сочи

Время (UTC), дата Ветер
(напр.,м/с)
 
Видим.   Явления Облачность Т
(С)
Тd
(С)
f
(%)
Тe
(С)
Тes
(С)
Комфортность P
(гПа)
Po
(гПа)
Тmin
(С)
Tmax
(С)
R
(мм)
R24
(мм)
S
(см)
12 17.05 З 1 20 км 8/0
[Ci fib]
+28.9 +14.7 42 +31 +44 жарко 1008.8 994.0
15 17.05 СЗ 2 20 км 1/0
[Ci fib]
+28.0 +13.2 40 +30 +32 жарко 1007.0 992.2 +29.7
18 17.05 В 2 20 км 3/0
[Ac As]
+23.1 +14.9 60 +27 +27 душно 1006.9 991.8
21 17.05 В 1 20 км 10/0
[Ac As Ci fib]
+21.5 +13.4 60 +24 +24 комфорт 1007.1 991.9
00 18.05 С 1 20 км 10/0
[Ac As Ci fib]
+23.3 +10.4 44 +25 +25 комфорт 1005.9 990.8
03 18.05 В 2 20 км 10/0
[Ac As Cs]
+22.2 +10.0 46 +24 +24 комфорт 1006.5 991.4 +20.0
06 18.05 З 2 20 км 8/3 1000 м
[Sc Ac cast Cc]
+25.4 +14.8 52 +28 +33 жарко 1004.4 989.5
09 18.05 ЮЗ 2 20 км ясно +29.3 +13.9 39 +31 +50 жарко 1004.7 990.0
12 18.05 СЗ 3 20 км ясно +29.1 +14.1 40 +31 +42 жарко 1003.1 988.4
15 18.05 СЗ 3 20 км 10/0
[Ci fib]
+26.8 +15.8 51 +30 +31 душно 1001.5 986.7 +30.4
18 18.05 В 1 20 км 10/4 1000 м
[Sc Ci fib]
+22.1 +14.7 63 +25 +25 комфорт 1004.8 989.7
21 18.05 В 3 20 км 10/3 1000 м
[Sc Cs]
+21.2 +16.6 75 +25 +25 комфорт 1005.4 990.3
00 19.05 В 2 20 км 10/3 600 м
[St Ci fib]
+19.8 +17.9 89 +23 +23 комфорт 1006.4 991.2
03 19.05 В 2 20 км в посл. час ливневой дождь 9/9 1000 м
[Cb cap]
+18.9 +18.1 95 +21 +21 комфорт 1006.9 991.6 +18.7 0.3
06 19.05 В 3 20 км {ливн. осадки} 10/10 300 м
[St]
+18.2 +18.2 100 +19 +19 тепло 1009.6 994.3 +18.2
09 19.05 ЮВ 1 3000 м морось 10/10 300 м
[St As op]
+17.1 +17.1 100 +18 +18 по сезону 1011.6 996.2
12 19.05 В 2 20 км {дождь, морось} 10/10 1000 м
[Sc]
+18.2 +16.2 88 +19 +19 по сезону 1012.1 996.7
15 19.05 ЮЗ 1 20 км 10/5 1000 м
[Sc Ac trans Ci sp]
+19.4 +15.9 80 +22 +23 комфорт 1011.7 996.4 +20.6 0.5
18 19.05 ЮЗ 1 20 км 10/10 1000 м
[Sc]
+17.9 +16.6 92 +19 +19 тепло 1012.6 997.2
21 19.05 В 1 20 км 10/10 1000 м
[Sc]
+17.5 +17.5 100 +19 +19 тепло 1013.5 998.1
00 20.05 С 1 2000 м ливневой дождь 10/10 600 м
[Cb cap]
+16.6 +16.6 100 +17 +17 тепло 1014.1 998.6
03 20.05 В 1 6000 м дымка {ливн. осадки} 10/4 1000 м
[Sc Ac trans Ci sp]
+16.4 +16.4 100 +17 +17 по сезону 1013.9 998.4 +16.3 3
06 20.05 штиль 0 4000 м слаб. ливневой дождь 10/10 600 м
[Cb cap]
+17.1 +17.1 100 +17 +17 по сезону 1015.8 1000.3
09 20.05 З 2 10 км {ливн. осадки} 10/6 1000 м
[Sc Ac As]
+19.7 +16.7 83 +23 +25 комфорт 1015.8 1000.4
12 20.05 З 2 18 км {ливн. осадки} 10/6 1000 м
[Sc Ac trans]
+19.2 +17.0 87 +22 +24 комфорт 1015.3 999.9
15 20.05 З 2 20 км 10/4 600 м
[Cb cap Ac trans Ci fib]
+20.4 +16.8 80 +24 +25 комфорт 1015.5 1000.2 +20.7
18 20.05 штиль 0 11 км 10/4 1000 м
[Sc Ac trans Ci fib]
+17.3 +17.3 100 +17 +17 по сезону 1016.2 1000.7
21 20.05 В 1 20 км 10/0
[Ci fib]
+16.8 +16.8 100 +18 +18 тепло 1016.1 1000.6
00 21.05 В 1 20 км 10/0
[Ci fib]
+15.6 +15.6 100 +16 +16 по сезону 1016.1 1000.5
03 21.05 В 1 20 км 6/0
[Ci fib]
+15.5 +15.5 100 +16 +17 по сезону 1016.2 1000.6 +15.3
06 21.05 ЮЗ 1 20 км ясно +20.9 +14.8 68 +25 +37 комфорт 1016.6 1001.3
09 21.05 З 3 20 км 3/0
[Ci fib]
+22.9 +16.5 67 +28 +42 душно 1016.7 1001.5
12 21.05 З 3 20 км 8/1 1000 м
[Cu med, cong Ci fib]
+23.7 +15.5 60 +27 +35 жарко 1016.2 1001.0
15 21.05 СЗ 1 20 км 10/3 1000 м
[Cu med, cong Ac As Ci fib]
+21.5 +16.0 71 +25 +26 комфорт 1015.4 1000.1 +24.6
18 21.05 В 1 20 км 10/0
[As trans Ci fib]
+19.0 +16.8 87 +22 +22 комфорт 1014.2 998.8
21 21.05 СВ 1 20 км 10/0
[Ci fib]
+18.4 +16.2 87 +20 +20 тепло 1014.3 998.9
00 22.05 В 2 20 км 10/0
[Cc]
+19.7 +14.1 70 +22 +22 комфорт 1013.5 998.2
03 22.05 СВ 1 20 км 10/3 1000 м
[Sc Ac As Ci fib]
+19.4 +13.8 70 +22 +22 комфорт 1013.0 997.6 +18.0
06 22.05 СЗ 1 20 км 10/10 1000 м
[Cb cap]
+20.9 +15.0 69 +25 +25 комфорт 1015.0 999.7
09 22.05 Ю 1 20 км {ливн. осадки} 10/8 1000 м
[Sc Ac trans Cc]
+23.2 +16.0 64 +28 +30 душно 1014.2 999.0
12 22.05 ЮВ 2 20 км {ливн. осадки} 10/8 1000 м
[Sc Cc]
+22.5 +14.9 62 +26 +28 жарко 1015.3 1000.1
15 22.05 В 2 20 км 3/1 1000 м
[Cu hum Ci fib]
+20.7 +16.3 76 +25 +27 комфорт 1015.5 1000.2 +24.3 0.0
18 22.05 В 2 20 км 4/4 600 м
[St]
+18.0 +17.4 96 +19 +19 тепло 1016.2 1000.7
21 22.05 В 2 20 км 10/0
[Ci fib]
+16.6 +16.4 99 +17 +17 по сезону 1016.0 1000.5
00 23.05 В 2 20 км 10/0
[Ac cast Cc]
+16.2 +13.3 83 +16 +16 по сезону 1014.5 998.9
03 23.05 В 2 20 км 10/6 1000 м
[Sc Ci ing]
+16.4 +12.6 78 +17 +17 по сезону 1014.3 998.8 +15.7
06 23.05 ЮВ 1 20 км 10/0
[As trans Ci sp]
+21.4 +13.6 61 +24 +32 комфорт 1014.1 998.8
09 23.05 ЮВ 2 20 км 10/4 1000 м
[Cu med, cong Ac trans Cc]
+21.5 +16.0 71 +25 +31 комфорт 1014.6 999.3
12 23.05 В 3 20 км 10/3 1000 м
[Cu med, cong Ac trans Ci sp]
+20.1 +16.7 81 +23 +27 комфорт 1014.4 999.1
15 23.05 В 2 20 км 10/6 1000 м
[Cu Sc Ac trans Ci fib]
+19.4 +13.3 68 +21 +22 комфорт 1014.4 999.0 +21.9
18 23.05 В 2 20 км 10/0
[Ac trans Ci fib]
+18.4 +13.9 75 +19 +19 тепло 1014.6 999.2
21 23.05 В 1 20 км 6/0
[Ci fib]
+16.6 +15.3 92 +17 +17 по сезону 1013.4 997.9
00 24.05 В 2 20 км ясно +16.5 +12.5 77 +17 +17 тепло 1012.4 996.9
03 24.05 В 2 20 км ясно +16.0 +11.8 76 +16 +17 по сезону 1011.7 996.2 +15.5
06 24.05 ЮЗ 2 20 км 6/0
[Ci]
+21.1 +11.4 54 +23 +32 комфорт 1011.2 995.9
09 24.05 ЮЗ 1 20 км 10/0
[Ci sp]
+21.9 +13.3 58 +25 +42 комфорт 1011.0 995.8

 

Местоположение метеостанции Сочи (Краснодарский край, Россия): широта 43.58 долгота 39.77 высота над уровнем моря 132 м.

В архиве по умолчанию представлена погода в Сочи за последнюю неделю. Архивные данные за месяц целиком и за предыдущие месяцы, начиная с января 2011 года, Вы можете получить, выбрав интересующий диапазон дат из раскрывающегося списка и нажав кнопку "Ввод!".


*Определитесь, кто Вы:
робот инопланетянин человек

Внимание! Время в таблицах - всемирное. Для получения местного времени необходимо прибавить поправку, которая равна 3 ч.

Смотрите также архив погоды в соседних городах и на ближайших метеорологических станциях:

Погода в Сочи аэропорт (Адлере) (Краснодарский край, Россия) (20 км)
Погода в Кепше (Краснодарский край, Россия) (23 км)
Погода в Имеретинке (Краснодарский край, Россия) (25 км)
Погода в Солох Ауле (Краснодарский край, Россия) (27 км)
Погода в Кичмае (Краснодарский край, Россия) (35 км)
Погода в Красной Поляне (Краснодарский край, Россия) (36 км)
Погода в Горная Карусель 1500 (Краснодарский край, Россия) (43 км)
Погода в Горная Карусель 1000 (Краснодарский край, Россия) (43 км)
Погода на Кордоне Лаура (Краснодарский край, Россия) (45 км)
Погода в Лазаревском (Краснодарский край, Россия) (50 км)

Пояснения к столбцам:

Ветер - указаны скорость ветра в м/с - средняя за 10 мин, порывы в срок и между сроками (в фигурных скобках) и направление, откуда дует ветер: С - северный, СВ - северо-восточный, В - восточный, ЮВ - юго-восточный, Ю - южный, ЮЗ - юго-западный, З - западный, СЗ - северо-западный.
Видимость - горизонтальная дальность видимости в метрах или километрах. При видимости от 1 до 10 км при отсутствии осадков обычно наблюдается дымка, при ухудшении видимости до 1 км и менее - туман. В сухую погоду видимость может ухудшаться дымом, пылью или мглою.
Явления - указаны атмосферные явления, наблюдавшиеся в срок или в последний час перед сроком; фигурными скобками обозначены явления, наблюдавшиеся между сроками (за 1-3 часа до срока); квадратными скобками обозначены град или гололедные отложения с указанием их диаметра в мм.
Облачность - указаны через наклонную черту общая и нижняя облачность в баллах и высота нижней границы облаков в метрах; квадратными скобками обозначены формы облаков: Ci - перистые, Cs - перисто-слоистые, Cc - перисто-кучевые, Ac - высококучевые, As - высокослоистые, Sc - слоисто-кучевые, Ns - слоисто-дождевые, Cu - кучевые, Cb - кучево-дождевые. Подробнее классификацию облаков см. в Атласе облаков (PDF).
T - Температура воздуха - температура, измеренная на высоте 2 м над землей.
Td - Температура точки росы - температура, при понижении до которой содержащийся в воздухе водяной пар достигнет насыщения.
f - Относительная влажность воздуха - влажноcть воздуха, измеренная на высоте 2 м над землей.
Te - Эффективная температура - температура, которую ощущает одетый по сезону человек в тени. Характеристика душности погоды. При расчете учитывается влияние влажности воздуха и скорости ветра на теплоощущения человека.
Tes - Эффективная температура на солнце - температура, которую ощущает человек, с поправкой на солнечный нагрев. Характеристика знойности погоды. Зависит от высоты солнца над горизонтом, облачности и скорости ветра. Ночью, в пасмурную погоду, а также при ветре 12 м/с и более поправка равна нулю.
P - Атмосферное давление - приведенное к уровню моря атмосферное давление.
Po - Атмосферное давление - измеренное на уровне метеостанции атмосферное давление.
Tmin - Минимальная температура - минимум температуры воздуха на высоте 2 м над землей.
Tmax - Максимальная температура - максимум температуры воздуха на высоте 2 м над землей.
R - Количество осадков - Количество выпавших осадков за период времени, мм. При наведении курсора мыши на число - период времени, за который выпало указанное количество осадков.
R24 - Количество осадков - Количество выпавших осадков за 24 часа, мм.
S - Снежный покров - Высота снежного покрова, см. При наведении курсора мыши на число - состояние снежного покрова и степень покрытия местности в баллах.